Погода в Парати

Бразилия     23°13′19″S   44°42′52″W
темп.,
°C
ветер,
м/с
пор.,
м/с
влажн.,
%
обл.,
%
осадки,
мм/ч
давл.,
гПа
погр.,
м
27 февраля, сб
сб2700:00+18ссв1299100 0.6 1015101
03:00+19с1299100 0.6 101498
06:00+19ссз119991 0.0 101427
09:00+21в019395 0.1 1016181
12:00+20св1298100 1.3 1016108
15:00+22всв2387100 1.9 1014336
18:00+20ссв129598 0.4 101484
21:00+20с129995 0.6 101547
28 февраля, вс
вс2800:00+20с1297100 0.1 101554
03:00+19сз129689 0.1 101327
06:00+18сз129363 0.0 101427
09:00+25всв126460 0.0 1015527
12:00+28вюв2257100 0.3 1014949
15:00+27в1265100 1.9 1012738
18:00+22в0198100 3.4 101242
21:00+20сз1198100 4.3 101426
1 марта, пн
пн100:00+20сз129696 0.2 101427
03:00+19сз229496 0.2 101332
06:00+18сз228890 0.0 101329
09:00+27в015394 0.0 1014480
12:00+30юв225090 0.0 10131013
15:00+28вюв226048 0.4 1011911
18:00+22всв11953 2.3 101154
21:00+20сз129626 2.6 101327
2 марта, вт
вт200:00+20сз229354 0.0 101428
03:00+19сз229061 0.0 101333
06:00+20сз228478 0.0 101439
09:00+27зсз015987 0.0 1015489
12:00+30юв115091 0.0 10141118
15:00+28вюв127196 0.9 1012702
18:00+23св1193100 1.9 101224
21:00+21сз1291100 2.0 101528
3 марта, ср
ср300:00+20сз228984 0.0 101529
03:00+21сз228392 0.0 101432
06:00+21зсз227988 0.0 101538
09:00+27ююз125965 0.0 1017677
12:00+27ююв226452 0.3 1016935
15:00+23ююз239375 3.2 1014499
18:00+21ссв239799 0.6 1014133
21:00+20ссз1296100 1.1 101642